Miscellaneous Local Product
Issued by NWS Hastings, NE

Home | Current Version | Previous Version | Graphics & Text | Print | Product List | Glossary On
Versions: 1 2 3 4 5 6 7 8 9 10 11 12 13 14 15 16 17 18 19 20 21 22 23 24 25 26 27 28 29 30 31 32 33 34 35 36 37 38 39 40 41 42 43 44 45 46 47 48 49 50
000
AXUS43 KGID 311902
MISGRI

GID CWA HOURLY WEATHER ROUNDUP
NATIONAL WEATHER SERVICE HASTINGS NE
200 PM CDT SUN AUG 31 2014

NOTE: "FAIR" INDICATES FEW OR NO CLOUDS BELOW 12,000 FEET WITH NO
SIGNIFICANT WEATHER AND/OR OBSTRUCTIONS TO VISIBILITY.

...SOUTH CENTRAL NEBRASKA...

CITY           SKY/WX    TMP DP  RH WIND       PRES   REMARKS
GRAND ISLAND   CLOUDY    86  65  49 SW14      29.75S
HASTINGS       PTSUNNY   82  63  52 SW8       29.74F
KEARNEY        MOSUNNY   82  64  54 W6        29.75F
ORD            CLOUDY    81  63  54 NW13      29.72F
YORK           MOSUNNY   81 N/A N/A S9        29.74S
AURORA         PTSUNNY   84  66  55 SW9       29.74S
LEXINGTON      PTSUNNY   79  63  57 NW12      29.76S
HOLDREGE       PTSUNNY   80  63  55 CALM      29.74F
HEBRON         MOSUNNY   86  65  48 S12G17    29.72F

...NEBRASKA PANHANDLE...

CITY           SKY/WX    TMP DP  RH WIND       PRES   REMARKS
CHADRON        CLOUDY    72  55  55 SW6       29.79F
ALLIANCE       CLOUDY    67  56  67 W12       29.83F
SCOTTSBLUFF    CLOUDY    69  55  60 CALM      29.85F
SIDNEY         CLOUDY    74  45  35 NW26G38   29.87F

...WESTERN AND NORTH CENTRAL NEBRASKA...

CITY           SKY/WX    TMP DP  RH WIND       PRES   REMARKS
VALENTINE      CLOUDY    63  60  90 SE7       29.79F
AINSWORTH      LGT RAIN  63  58  85 N5        29.81F
ONEILL         PTSUNNY   78  62  58 NW16      29.79R
BROKEN BOW     CLOUDY    72  59  63 N20G30    29.76F
IMPERIAL       CLOUDY    73  55  53 N15       29.83F
NORTH PLATTE   LGT RAIN  71  57  61 NW12G22   29.85R
MCCOOK         MOSUNNY   82  58  43 N20       29.79R

...EASTERN NEBRASKA...

CITY           SKY/WX    TMP DP  RH WIND       PRES   REMARKS
NORFOLK        MOSUNNY   83  66  56 S8        29.73S
SO SIOUX CITY  MOSUNNY   80  67  64 S10       29.72F
TEKAMAH        CLOUDY    74  69  85 SE9       29.74F
COLUMBUS       MOSUNNY   82  70  65 E6        29.74S
ALBION         MOSUNNY   80  66  62 S6        29.74S
OMAHA EPPLEY   CLOUDY    78  69  73 SE16      29.76F
OFFUTT AFB     CLOUDY    77  75  92 SE13      29.76F
MILLARD        CLOUDY    77  70  80 SE10      29.75F
LINCOLN        MOSUNNY   82  69  64 SE13      29.74F
NEBRASKA CITY  CLOUDY    80  72  74 SE9       29.77F
BEATRICE       SUNNY     89  69  50 S18G24    29.72F HX  94
FALLS CITY     MOSUNNY   90  72  55 S18       29.76F HX  97

...NORTHERN KANSAS...

CITY           SKY/WX    TMP DP  RH WIND       PRES   REMARKS
GOODLAND       CLOUDY    77  54  44 N22G30    29.86R
HILL CITY      SUNNY     90  60  36 NW6       29.72F
NORTON         CLEAR     88  54  31 NW12G17   29.73F
PHILLIPSBURG   SUNNY     90  61  37 SW13      29.71F HAZE
SMITH CENTER   SUNNY     90  70  51 SE7       29.70F HX  95
BELOIT         SUNNY     93  64  38 S18G31    29.68F HX  95
HAYS           MOSUNNY   97  61  30 SW31G37   29.68F HX  97
RUSSELL        MOSUNNY   93  64  38 S29G39    29.68F HX  94
CONCORDIA      MOSUNNY   89  69  51 S20G29    29.71F HX  93
SALINA         SUNNY     94  65  38 S23G35    29.72F HX  96
TOPEKA         SUNNY     94  67  41 S21G30    29.79F HX  97



USA.gov is the U.S. government's official web portal to all federal, state and local government web resources and services.